Pos.Doss.NomPrenomTempsVit.Moy.Allure Pos. catégCatégorie Points Club
1 180 PAQUES BENOÎT 00:34:30 17.39 00:03:27 1Séniors 1000 RFCL
2 1054 PHILIPPE PATRICK 00:35:40 16.82 00:03:34 1Vétérans 1 995 JOG IN ATTITUDE
3 35 PETRY CEDRIC 00:36:02 16.65 00:03:36 2Séniors 989 RFCL
4 1429 DEMIRKAZAN MIKAIL 00:36:55 16.25 00:03:42 3Séniors 984 -
5 1368 WITHOFS PETER 00:37:07 16.17 00:03:43 4Séniors 979 -
6 1187 VERVIER ARNAUD 00:37:37 15.95 00:03:46 5Séniors 974 CHALLENGE AVENIR
7 1002 LEJEUNE SYLVAIN 00:38:26 15.61 00:03:51 6Séniors 968 OUFTEAM
8 1292 KAISER BORIS 00:39:14 15.29 00:03:55 1Espoirs H 963 HERVE
9 1428 BLANCHY REGIS 00:39:56 15.03 00:03:60 7Séniors 958 HERVE
10 1250 SOKAY THOMAS 00:40:25 14.85 00:04:03 8Séniors 952 -
11 1198 DE FROIDMONT GUILLAUME 00:40:33 14.8 00:04:03 2Espoirs H 947 RCA SPA
12 1413 HECK MARC 00:40:45 14.72 00:04:05 2Vétérans 1 942 -
13 1415 HECK NICOLAS 00:40:53 14.68 00:04:05 9Séniors 937 -
14 1186 MAES LAURENT 00:40:55 14.66 00:04:06 10Séniors 931 EVOLUTION22
15 115 GUISSART ALAIN 00:41:13 14.56 00:04:07 3Vétérans 1 926
16 186 DEBATTY HERVE 00:41:32 14.45 00:04:09 4Vétérans 1 921
17 1050 TOSI IRENE 00:41:38 14.41 00:04:010 1Dames 915 JOG IN ATTITUDE
18 1260 CIOMEK FRED 00:42:16 14.2 00:04:14 5Vétérans 1 910 CHALLENGE AVENIR
19 1241 SCHMETZ GILLES 00:42:51 14 00:04:17 11Séniors 905 -
20 94 IPACH PIERRE 00:43:00 13.95 00:04:18 1Vétérans 2 899 RFCL
21 19 MERCIADRI LUCA 00:43:02 13.94 00:04:18 12Séniors 894
22 96 THIRIFAYS DELPHINE 00:43:05 13.93 00:04:19 2Dames 889 RFCL
23 1182 LEHANCE PASCAL 00:43:06 13.92 00:04:19 6Vétérans 1 884 RFCL
24 1133 TREMBLAY HUGUES 00:43:21 13.84 00:04:20 7Vétérans 1 878 -
25 1137 LEHANCE FREDERIC 00:43:21 13.84 00:04:20 8Vétérans 1 873 -
26 1215 CORBUSIER NICOLAS 00:43:24 13.82 00:04:20 13Séniors 868 CHALLENGE AVENIR
27 1149 LARUE ARNAUD 00:43:26 13.81 00:04:21 14Séniors 862 -
28 48 HALDERS SERVAIS 00:43:29 13.8 00:04:21 1Vétérans 3 857 HF
29 57 BOLLEN PASCAL 00:43:33 13.78 00:04:21 2Vétérans 2 852 SERAING ATHÉTISME
30 1364 DESSOUROUX JEAN 00:43:42 13.73 00:04:22 2Vétérans 3 847 CHALLENGE AVENIR
31 1060 FLORKIN-DANS GILLES 00:43:45 13.71 00:04:23 15Séniors 841 JOG IN ATTITUDE
32 1158 SIEBENBOUR MICHEL 00:44:00 13.64 00:04:24 3Vétérans 2 836 CHALLENGE AVENIR
33 74 DAMBLON PATRICK 00:44:14 13.56 00:04:25 4Vétérans 2 831 CHALLENGE AVENIR
34 1018 BENARD OLIVIER 00:44:29 13.49 00:04:27 9Vétérans 1 825 -
35 1242 WAGELMANS CLARISSE 00:44:29 13.49 00:04:27 1Ainées 1 820 RFCL - TRIATHLIEGE
36 1379 WANSART NICOLAS 00:44:43 13.42 00:04:28 16Séniors 815 -
37 1108 BAYONNET JULIEN 00:44:51 13.38 00:04:29 17Séniors 810 SER ATHL
38 1076 DEJARDIN FREDERIC 00:45:13 13.27 00:04:31 10Vétérans 1 804 I LOVE RUNNING LIEGE
39 67 REGNIER DIDIER 00:45:27 13.2 00:04:33 5Vétérans 2 799 LES ZAFTERS
40 1235 BRIQUET NATHALIE 00:45:31 13.18 00:04:33 1Ainées 2 794 CHALLENGE AVENIR
41 1220 BORGS MICHEL 00:45:37 13.15 00:04:34 6Vétérans 2 788 -
42 6 EVRARD ROLAND 00:45:40 13.14 00:04:34 18Séniors 783
43 1072 DORTU BASTIAN 00:45:42 13.13 00:04:34 19Séniors 778 -
44 16 BUCKINX ETIENNE 00:45:46 13.11 00:04:35 7Vétérans 2 772 RFCL
45 1111 THIRION JEAN-FRANCOIS 00:45:55 13.07 00:04:36 8Vétérans 2 767 NEUPRE AC
46 40 CANALES ALBERTO 00:45:57 13.06 00:04:36 3Vétérans 3 762
47 1408 DELOYER LAURENT 00:46:09 13 00:04:37 11Vétérans 1 757 -
48 1228 DELHAUSSE KEVIN 00:46:18 12.96 00:04:38 20Séniors 751 CHALLENGE AVENIR
49 1378 VAN HOYE VICTOR 00:46:18 12.96 00:04:38 21Séniors 746 -
50 1204 VARGA MICHAEL 00:46:28 12.91 00:04:39 22Séniors 741 CHALLENGE AVENIR
51 143 JEUKENS MICHEL 00:46:33 12.89 00:04:39 12Vétérans 1 735
52 1272 TIMMERMANN ALEXANDRE 00:47:15 12.7 00:04:44 23Séniors 730 RCA SPA
53 1323 JANDRAIN FRANCOIS 00:47:16 12.69 00:04:44 13Vétérans 1 725 CHALLENGE AVENIR
54 1161 GEORGES SEBASTIEN 00:47:18 12.68 00:04:44 24Séniors 720 CHALLENGE AVENIR
55 1298 COUNE JEROME 00:47:19 12.68 00:04:44 25Séniors 714 -
56 51 KNAPEN LAURENT 00:47:46 12.56 00:04:47 4Vétérans 3 709 JOG IN ATTITUDE
57 1118 SOMJA VICTOR 00:47:50 12.54 00:04:47 5Vétérans 3 704 -
58 1056 ZANETTI DANIEL 00:48:01 12.5 00:04:48 14Vétérans 1 698 SERUNNERS
59 1094 BASTIN BERNARD 00:48:06 12.47 00:04:49 9Vétérans 2 693 -
60 1074 DORTU ARNAUD 00:48:09 12.46 00:04:49 26Séniors 688 -
61 1313 RUTH CINDY 00:48:15 12.44 00:04:50 2Ainées 1 683 -
62 156 FREDERICH DOMINIQUE 00:48:18 12.42 00:04:50 2Ainées 2 677 HERVE
63 1020 BOGAERT CHARLY 00:48:18 12.42 00:04:50 10Vétérans 2 672 -
64 1349 COLLARD SERGE 00:48:20 12.41 00:04:50 11Vétérans 2 667 HERVE
65 1433 DEGUELDRE VINCENT 00:48:38 12.34 00:04:52 27Séniors 661 SOMJA RUNNING
66 1435 VROMEN PIERRE-YVES 00:49:04 12.23 00:04:54 28Séniors 656 -
67 320 BARNABE MICHEL 00:49:14 12.19 00:04:55 12Vétérans 2 651 RDV RUN
68 1099 CANALES MIGUEL 00:49:19 12.17 00:04:56 29Séniors 646 -
69 1114 FISCHER RAPHAEL 00:49:22 12.15 00:04:56 30Séniors 640 CHALLENGE AVENIR
70 1171 HERMANS ROBBY 00:49:25 12.14 00:04:57 31Séniors 635 -
71 1046 MARION SOPHIE 00:49:35 12.1 00:04:58 3Dames 630 -
72 1385 BAGUETTE THIBAUT 00:49:43 12.07 00:04:58 32Séniors 624 -
73 1377 DUMOULIN MAXIME 00:49:44 12.06 00:04:58 33Séniors 619 CHALLENGE AVENIR
74 1143 KEIL YVES 00:50:00 12 00:05:00 15Vétérans 1 614 JOG IN ATTITUDE
75 1329 DALLA CORTE LUDOVIC 00:50:03 11.99 00:05:00 34Séniors 608 -
76 1155 HENAUX STEPHANE 00:50:06 11.98 00:05:01 35Séniors 603 FILOUTEAM
77 32 RIGO MICHEL 00:50:14 11.94 00:05:01 16Vétérans 1 598
78 1243 COUNE BENOIT 00:50:17 11.93 00:05:02 17Vétérans 1 593 -
79 194 DETRIXHE CHRISTOPHE 00:50:18 11.93 00:05:02 18Vétérans 1 587 WAC
80 1159 MOTTEN JAMES 00:50:20 11.92 00:05:02 36Séniors 582 -
81 1376 KEVELAER BEATRICE 00:50:21 11.92 00:05:02 3Ainées 1 577 CHALLENGE AVENIR
82 1310 HUET WILLIAM 00:50:22 11.91 00:05:02 19Vétérans 1 571 -
83 215 SOMJA JEAN-PHILIPPE 00:50:23 11.91 00:05:02 37Séniors 566 SOMJA RUNNING
84 1327 MEYS CLAUDE 00:50:43 11.83 00:05:04 13Vétérans 2 561 CHALLENGE AVENIR
85 1049 VAN TOMME YVES 00:50:46 11.82 00:05:05 14Vétérans 2 556
86 1129 BIDOUL GILBERT 00:50:52 11.8 00:05:05 38Séniors 550 -
87 1170 LOGNARD STEPHANIE 00:50:52 11.8 00:05:05 4Dames 545 CHALLENGE AVENIR
88 1128 DEVIVIER MARC 00:51:03 11.75 00:05:06 20Vétérans 1 540 CHALLENGE AVENIR
89 70 DARCIS JOËL 00:51:04 11.75 00:05:06 39Séniors 534 RDV RUN
90 54 ROUFOSSE JOEFREY 00:51:32 11.64 00:05:09 15Vétérans 2 529 VOUS RUN
91 228 RAES GUY 00:51:40 11.61 00:05:10 6Vétérans 3 524 SER ATHL
92 1308 SERVAIS MARTIN 00:51:54 11.56 00:05:11 40Séniors 519 -
93 1083 AUTUNNO ANTOINE 00:51:54 11.56 00:05:11 41Séniors 513 -
94 1163 BISSOT MICHEL 00:51:56 11.55 00:05:12 21Vétérans 1 508 -
95 1088 SIMON BRUNO 00:51:58 11.55 00:05:12 7Vétérans 3 503 -
96 1177 VANHAY RONNY 00:51:59 11.54 00:05:12 22Vétérans 1 497 -
97 1192 PORROVECCHIO LINA 00:52:01 11.53 00:05:12 5Dames 492 CHALLENGE AVENIR
98 1239 ETIENNE LAURE 00:52:09 11.51 00:05:13 6Dames 487 CHALLENGE AVENIR
99 1305 SERVAIS BENOIT 00:52:10 11.5 00:05:13 23Vétérans 1 481 -
100 170 BATTISTINI LUCIANO 00:52:13 11.49 00:05:13 8Vétérans 3 476 NEUPRE AC
101 1240 HOOFS PHILIPPE 00:52:20 11.46 00:05:14 42Séniors 471 CHALLENGE AVENIR
102 1387 CORDEWENER CELINE 00:52:23 11.45 00:05:14 7Dames 466 -
103 1146 BROUWIER VINCENT 00:52:35 11.41 00:05:16 43Séniors 460 SCHOLZEN
104 1070 OLIVIERI AMERIGO 00:52:52 11.35 00:05:17 9Vétérans 3 455 JOG IN ATTITUDE
105 1065 URBANI JEAN-MARC 00:52:57 11.33 00:05:18 16Vétérans 2 450 SERUNNERS
106 141 DOSSERAY ROGER 00:52:58 11.33 00:05:18 1? 444 HF
107 1166 BEAUWENS MAGALI 00:52:58 11.33 00:05:18 8Dames 439 -
108 238 DELREZ SANDRA 00:53:00 11.32 00:05:18 4Ainées 1 434
109 1249 JOWAY ERIC 00:53:03 11.31 00:05:18 17Vétérans 2 429 RDV RUN
110 1116 FONTAINE SERGE 00:53:06 11.3 00:05:19 24Vétérans 1 423 -
111 125 RIBANT NATHALIE 00:53:15 11.27 00:05:20 1Espoirs D 418
112 1423 FAUCONNIER NICOLAS 00:53:17 11.26 00:05:20 44Séniors 413 -
113 1412 ROGISTER JEROME 00:53:49 11.15 00:05:23 45Séniors 407 -
114 221 MORANA EDOUARD 00:53:51 11.14 00:05:23 18Vétérans 2 402 SER ATHL
115 1229 VERCAMMEN MICHEL 00:53:51 11.14 00:05:23 25Vétérans 1 397 -
116 1330 SCHNEIDER PHILIPPE 00:53:53 11.14 00:05:23 26Vétérans 1 392 CHALLENGE AVENIR
117 1089 ARCHAMBEAU ROGER 00:53:58 11.12 00:05:24 10Vétérans 3 386 -
118 1184 DETAILLE OLIVIER 00:54:09 11.08 00:05:25 27Vétérans 1 381 -
119 1190 GUSTINE CELINE 00:54:36 10.99 00:05:28 9Dames 376 -
120 1175 TACK JEROEN 00:55:01 10.91 00:05:30 46Séniors 370 -
121 1416 GOFFIN HELOISE 00:55:03 10.9 00:05:30 10Dames 365 -
122 1267 LAMBION LOIC 00:55:18 10.85 00:05:32 47Séniors 360 -
123 1194 DAMAN FRANCOIS 00:55:27 10.82 00:05:33 19Vétérans 2 354 RECL
124 1152 HEINRICHS GREGORY 00:55:36 10.79 00:05:34 48Séniors 349 TEAM SOMJA
125 1130 SARLET JULIE 00:55:36 10.79 00:05:34 11Dames 344 CHALLENGE AVENIR
126 1262 LAMBION PIERRE 00:55:36 10.79 00:05:34 49Séniors 339 -
127 1103 WIERTZ XAVIER 00:55:36 10.79 00:05:34 50Séniors 333 CHALLENGE AVENIR
128 1314 WILKIN MAXIME 00:56:09 10.69 00:05:37 51Séniors 328 JOG IN ATTITUDE
129 1386 MERCENIER GILLES 00:56:09 10.69 00:05:37 52Séniors 323 -
130 1410 BONAVENTURE CEDRIC 00:56:15 10.67 00:05:38 53Séniors 317 -
131 1233 PIERRE ARTHUR 00:56:31 10.62 00:05:39 ? -
132 1145 SCHOLZEN JOANNIE 00:57:12 10.49 00:05:43 12Dames 312 CHALLENGE AVENIR
133 5 MATHOT RICHARD 00:57:21 10.46 00:05:44 11Vétérans 3 307
134 62 PATOUT ARNAUD 00:57:24 10.45 00:05:44 54Séniors 302
135 1288 DUBLET SERGE 00:57:52 10.37 00:05:47 12Vétérans 3 296 CHALLENGE AVENIR
136 77 STEIMES NATHALIE 00:58:08 10.32 00:05:49 5Ainées 1 291 SER ATHL
137 1151 LELOTTE DAMIEN 00:58:10 10.32 00:05:49 28Vétérans 1 286 -
138 1148 VANDEGAAR TONY 00:58:13 10.31 00:05:49 13Vétérans 3 280 CHALLENGE AVENIR
139 1126 DOSSERAY FREDERIC 00:58:16 10.3 00:05:50 29Vétérans 1 275 CHALLENGE AVENIR
140 1316 BRAGARD ANMI 00:58:21 10.28 00:05:50 6Ainées 1 270 -
141 1150 SCAPIN ROBERT 00:58:28 10.26 00:05:51 20Vétérans 2 265 RUNNING SOUMAGNE
142 55 RONCATO FABRICE 00:58:31 10.25 00:05:51 55Séniors 259
143 1391 DELCOURT CEDRIC 00:58:46 10.21 00:05:53 56Séniors 254 CHALLENGE AVENIR
144 1425 MARTIN DIMITRI 00:58:48 10.2 00:05:53 57Séniors 249 -
145 1287 ABAD LAMAS PATRICIA 00:58:51 10.2 00:05:53 3Ainées 2 243 CHALLENGE AVENIR
146 1134 REUL SANDRINE 00:58:58 10.18 00:05:54 7Ainées 1 238 -
147 1132 MARCEAU VERONIQUE 00:58:58 10.18 00:05:54 8Ainées 1 233 -
148 1405 HOFMAN ROGER 00:59:00 10.17 00:05:54 58Séniors 228 -
149 79 LELOUP DOMINIQUE 00:59:38 10.06 00:05:58 4Ainées 2 222 RDV RUN
150 1090 VANDEBERG PAUL 00:59:42 10.05 00:05:58 2? 217 H-F
151 1269 GILLON PATRICK 00:59:55 10.01 00:05:60 30Vétérans 1 212 -
152 1392 FETTWEIS GAELLE 01:00:35 9.9 00:06:04 13Dames 206 CHALLENGE AVENIR
153 132 WASSON ANDRÉ 01:01:00 9.84 00:06:06 21Vétérans 2 201 JOG IN ATTITUDE
154 1178 HOUTEN JOEL 01:01:05 9.82 00:06:07 31Vétérans 1 196 -
155 80 FERNANDEZ HERRERA BERNARD 01:01:20 9.78 00:06:08 32Vétérans 1 190 SODEXO RUN
156 1107 VANDEWEYER LUDIVINE 01:01:54 9.69 00:06:11 9Ainées 1 185 SERUNNERS
157 1500 FAYS JEROME 01:01:54 9.69 00:06:11 59Séniors 180 -
158 1401 SCHRYMECKER JULIEN 01:02:10 9.65 00:06:13 60Séniors 175 -
159 1289 KEVELAER LAURENCE 01:02:36 9.58 00:06:16 10Ainées 1 169 -
160 1256 DEGUELDRE JEAN-LOUIS 01:02:38 9.58 00:06:16 22Vétérans 2 164 -
161 1431 BOULTON KEVIN 01:02:58 9.53 00:06:18 61Séniors 159 -
162 1201 VERHEYEN GREGORY 01:03:43 9.42 00:06:22 62Séniors 153 -
163 1344 CHARBON SYLVAIN 01:04:17 9.33 00:06:26 63Séniors 148 KV SPRITSAMERE
164 1337 CREMER GILLES 01:04:17 9.33 00:06:26 3Espoirs H 143 -
165 1334 LUCASSEN GUILLAUME 01:04:18 9.33 00:06:26 64Séniors 138 -
166 1348 FOUNTANELLAS IOANNIS 01:04:21 9.32 00:06:26 65Séniors 132 KV SPRITSAMERE
167 113 PERFETTO ELISA 01:04:24 9.32 00:06:26 1Ainées 3 127 AMC MEHAGNE
168 13 PANARIELLO FABIAN 01:04:25 9.31 00:06:27 66Séniors 122 AMC MEHAGNE
169 1216 DELNOOZ XAVIER 01:04:26 9.31 00:06:27 67Séniors 116 -
170 66 LEFORT PIERRE 01:05:34 9.15 00:06:33 33Vétérans 1 111 A.M.C.
171 1421 DEMOLLIN MARC 01:06:02 9.09 00:06:36 14Vétérans 3 106 RFCL
172 1328 NICKELS DANIELLE 01:06:27 9.03 00:06:39 2Ainées 3 101 CHALLENGE AVENIR
173 1268 MALTSCHENKOW CATHY 01:07:10 8.93 00:06:43 5Ainées 2 95 LIGNE69
174 1352 KOVADIO MATHEO 01:07:11 8.93 00:06:43 ? -
175 1354 MAGNEE ETIENNE 01:07:11 8.93 00:06:43 68Séniors 90 -
176 158 MAHY CHRISTOPHE 01:07:55 8.83 00:06:48 34Vétérans 1 85 RDV RUN
177 1181 DEMONCEAU LAURENCE 01:08:13 8.8 00:06:49 11Ainées 1 79 COURE POUR MA FORME FLERON
178 1075 SCHMETZ LOUIS 01:08:52 8.71 00:06:53 3? 74 -
179 75 CLOSSET DIDIER 01:09:21 8.65 00:06:56 35Vétérans 1 69
180 69 JULIN PASCAL 01:09:22 8.65 00:06:56 69Séniors 63 AMC MEHAGNE
181 1100 CZOKOW GEOFFREY 01:09:45 8.6 00:06:59 70Séniors 58 -
182 1102 CZOKOW ANDRE 01:09:46 8.6 00:06:59 71Séniors 53 -
183 1162 BISSOT DYLAN 01:10:22 8.53 00:07:02 ? -
184 50 VAN LAAR CHRISTINE 01:11:06 8.44 00:07:07 6Ainées 2 48
185 234 KALIN THIERRY 01:11:34 8.38 00:07:09 36Vétérans 1 42
186 1098 DEFOSSE MONIQUE 01:12:06 8.32 00:07:13 7Ainées 2 37 -
187 1077 PIRARD THIERRY 01:12:22 8.29 00:07:14 23Vétérans 2 32 MENUISERIE PIRARD
188 1357 DELAIRESSE GILBERT 01:12:27 8.28 00:07:15 4? 26 -
189 1006 ODEURS JEAN-CLAUDE 01:18:38 7.63 00:07:52 72Séniors 21 LES COREUS D AWANS
190 1320 MEYER RAISSA 01:31:24 6.56 00:09:08 8Ainées 2 16 -
191 1322 MEYER THOMAS 01:31:24 6.56 00:09:08 15Vétérans 3 11 -
192 1223 KOVAC MARTINE 01:31:44 6.54 00:09:10 9Ainées 2 5 MPW
7eme Jogging de la Fete Ayeneux 2018
Distance : 10.0 kms
192 coureurs
Normal Interclubs